Time,TemperatureF,DewpointF,PressureIn,WindDirection,WindDirectionDegrees,WindSpeedMPH,WindSpeedGustMPH,Humidity,HourlyPrecipIn,Conditions,Clouds,dailyrainin,SoftwareType,DateUTC
2013-11-29 00:08:00,28.8,27.0,30.22,SSE,167,0.0,0.0,93,0.00,,,0.00,WeatherCatV1.23B16,2013-11-29 08:08:00,
2013-11-29 00:23:00,28.7,26.9,30.22,SSE,167,0.0,0.0,93,0.00,,,0.00,WeatherCatV1.23B16,2013-11-29 08:23:00,
2013-11-29 00:38:00,28.5,26.7,30.23,SSE,167,0.0,0.0,93,0.00,,,0.00,WeatherCatV1.23B16,2013-11-29 08:38:00,
2013-11-29 00:53:00,28.2,26.4,30.24,SSE,167,0.0,0.0,93,0.00,,,0.00,WeatherCatV1.23B16,2013-11-29 08:53:00,
2013-11-29 01:08:00,28.3,26.5,30.24,SSE,167,0.0,0.0,93,0.00,,,0.00,WeatherCatV1.23B16,2013-11-29 09:08:00,
2013-11-29 01:23:00,28.3,26.5,30.24,SSE,167,0.0,0.0,93,0.00,,,0.00,WeatherCatV1.23B16,2013-11-29 09:23:00,
2013-11-29 01:38:00,28.3,26.5,30.25,SSE,167,0.0,0.0,93,0.00,,,0.00,WeatherCatV1.23B16,2013-11-29 09:38:00,
2013-11-29 01:53:00,28.3,26.5,30.24,SSE,167,0.0,0.0,93,0.00,,,0.00,WeatherCatV1.23B16,2013-11-29 09:53:00,
2013-11-29 02:08:00,28.1,26.3,30.25,SSE,167,0.0,0.0,93,0.00,,,0.00,WeatherCatV1.23B16,2013-11-29 10:08:00,
2013-11-29 02:23:00,28.0,26.2,30.25,SSE,167,0.0,0.0,93,0.00,,,0.00,WeatherCatV1.23B16,2013-11-29 10:23:00,
2013-11-29 02:38:00,27.7,26.0,30.26,SSE,167,0.0,0.0,93,0.00,,,0.00,WeatherCatV1.23B16,2013-11-29 10:38:00,
2013-11-29 02:53:00,27.5,25.8,30.26,SSE,167,0.0,0.0,93,0.00,,,0.00,WeatherCatV1.23B16,2013-11-29 10:53:00,
2013-11-29 03:08:00,27.6,25.9,30.27,SSE,167,0.0,0.0,93,0.00,,,0.00,WeatherCatV1.23B16,2013-11-29 11:08:00,
2013-11-29 03:23:00,28.1,26.3,30.27,SSE,167,0.0,0.0,93,0.00,,,0.00,WeatherCatV1.23B16,2013-11-29 11:23:00,
2013-11-29 03:38:00,28.6,26.8,30.27,SSE,167,0.0,0.0,93,0.00,,,0.00,WeatherCatV1.23B16,2013-11-29 11:38:00,
2013-11-29 03:53:00,29.0,27.2,30.27,SSE,167,0.0,0.0,93,0.00,,,0.00,WeatherCatV1.23B16,2013-11-29 11:53:00,
2013-11-29 04:08:00,29.2,27.4,30.27,SSE,167,0.0,0.0,93,0.00,,,0.00,WeatherCatV1.23B16,2013-11-29 12:08:00,
2013-11-29 04:23:00,28.9,27.1,30.27,SSE,167,0.0,0.0,93,0.00,,,0.00,WeatherCatV1.23B16,2013-11-29 12:23:00,
2013-11-29 04:38:00,28.4,26.6,30.27,SSE,167,0.0,0.0,93,0.00,,,0.00,WeatherCatV1.23B16,2013-11-29 12:38:00,
2013-11-29 04:53:00,27.8,26.0,30.27,SSE,167,0.0,0.0,93,0.00,,,0.00,WeatherCatV1.23B16,2013-11-29 12:53:00,
2013-11-29 05:08:00,27.4,25.6,30.27,SSE,167,0.0,0.0,93,0.00,,,0.00,WeatherCatV1.23B16,2013-11-29 13:08:00,
2013-11-29 05:23:00,27.0,25.2,30.28,SSE,167,0.0,0.0,93,0.00,,,0.00,WeatherCatV1.23B16,2013-11-29 13:23:00,
2013-11-29 05:38:00,26.7,25.0,30.28,SSE,167,0.0,0.0,93,0.00,,,0.00,WeatherCatV1.23B16,2013-11-29 13:38:00,
2013-11-29 05:53:00,26.5,24.8,30.29,SSE,167,0.0,0.0,93,0.00,,,0.00,WeatherCatV1.23B16,2013-11-29 13:53:00,
2013-11-29 06:08:00,26.3,24.6,30.29,SSE,167,0.0,0.0,93,0.00,,,0.00,WeatherCatV1.23B16,2013-11-29 14:08:00,
2013-11-29 06:23:00,26.2,24.5,30.29,SSE,167,0.0,0.0,93,0.00,,,0.00,WeatherCatV1.23B16,2013-11-29 14:23:00,
2013-11-29 06:38:00,26.6,24.9,30.29,SSE,167,0.0,0.0,93,0.00,,,0.00,WeatherCatV1.23B16,2013-11-29 14:38:00,
2013-11-29 06:53:00,27.0,25.2,30.30,SSE,167,0.0,0.0,93,0.00,,,0.00,WeatherCatV1.23B16,2013-11-29 14:53:00,
2013-11-29 07:08:00,27.3,25.5,30.31,SSE,167,0.0,0.0,93,0.00,,,0.00,WeatherCatV1.23B16,2013-11-29 15:08:00,
2013-11-29 07:23:00,27.8,26.0,30.31,SSE,167,0.0,0.0,93,0.00,,,0.00,WeatherCatV1.23B16,2013-11-29 15:23:00,
2013-11-29 07:38:00,28.0,26.2,30.31,SSE,167,0.0,0.0,93,0.00,,,0.00,WeatherCatV1.23B16,2013-11-29 15:38:00,
2013-11-29 07:53:00,28.3,26.5,30.31,SSE,167,0.0,0.0,93,0.00,,,0.00,WeatherCatV1.23B16,2013-11-29 15:53:00,
2013-11-29 08:08:00,28.8,27.0,30.32,SSE,167,0.0,0.0,93,0.00,,,0.00,WeatherCatV1.23B16,2013-11-29 16:08:00,
2013-11-29 08:23:00,29.4,27.6,30.32,SSE,167,0.0,0.0,93,0.00,,,0.00,WeatherCatV1.23B16,2013-11-29 16:23:00,
2013-11-29 08:38:00,29.8,28.0,30.32,SSE,167,0.0,1.0,93,0.00,,,0.00,WeatherCatV1.23B16,2013-11-29 16:38:00,
2013-11-29 08:53:00,30.1,28.3,30.33,SSE,167,0.0,0.0,93,0.00,,,0.00,WeatherCatV1.23B16,2013-11-29 16:53:00,
2013-11-29 09:08:00,30.3,28.5,30.33,SSE,167,0.0,0.0,93,0.00,,,0.01,WeatherCatV1.23B16,2013-11-29 17:08:00,
2013-11-29 09:23:00,30.7,28.9,30.33,SSE,167,0.0,0.0,93,0.00,,,0.01,WeatherCatV1.23B16,2013-11-29 17:23:00,
2013-11-29 09:38:00,31.2,29.4,30.32,SSE,167,0.0,0.0,93,0.00,,,0.01,WeatherCatV1.23B16,2013-11-29 17:38:00,
2013-11-29 09:53:00,31.6,29.8,30.32,SSE,167,0.0,0.0,93,0.00,,,0.01,WeatherCatV1.23B16,2013-11-29 17:53:00,
2013-11-29 10:08:00,32.2,30.4,30.31,SSE,167,0.0,0.0,93,0.00,,,0.01,WeatherCatV1.23B16,2013-11-29 18:08:00,
2013-11-29 10:23:00,33.9,32.1,30.32,SSE,167,2.0,2.0,93,0.00,,,0.01,WeatherCatV1.23B16,2013-11-29 18:23:00,
2013-11-29 10:38:00,33.7,31.9,30.33,South,175,1.0,2.0,93,0.00,,,0.01,WeatherCatV1.23B16,2013-11-29 18:38:00,
2013-11-29 10:53:00,33.8,32.0,30.34,South,175,0.0,0.0,93,0.00,,,0.01,WeatherCatV1.23B16,2013-11-29 18:53:00,
2013-11-29 11:08:00,33.7,31.9,30.33,South,191,1.0,2.0,93,0.00,,,0.01,WeatherCatV1.23B16,2013-11-29 19:08:00,
2013-11-29 11:23:00,34.6,32.8,30.32,South,191,1.0,1.0,93,0.00,,,0.01,WeatherCatV1.23B16,2013-11-29 19:23:00,
2013-11-29 11:38:00,36.1,34.5,30.31,South,191,0.0,1.0,94,0.00,,,0.01,WeatherCatV1.23B16,2013-11-29 19:38:00,
2013-11-29 11:53:00,39.4,37.5,30.31,South,191,0.0,0.0,93,0.00,,,0.01,WeatherCatV1.23B16,2013-11-29 19:53:00,
2013-11-29 12:08:00,40.4,38.8,30.30,South,191,0.0,0.0,94,0.00,,,0.01,WeatherCatV1.23B16,2013-11-29 20:08:00,
2013-11-29 12:23:00,42.0,40.1,30.30,South,180,0.0,1.0,93,0.00,,,0.01,WeatherCatV1.23B16,2013-11-29 20:23:00,
2013-11-29 12:38:00,43.4,40.1,30.29,South,185,0.0,2.0,88,0.00,,,0.01,WeatherCatV1.23B16,2013-11-29 20:38:00,
2013-11-29 12:53:00,44.4,39.9,30.28,South,182,1.0,2.0,84,0.00,,,0.01,WeatherCatV1.23B16,2013-11-29 20:53:00,
2013-11-29 13:08:00,45.0,40.2,30.28,South,170,0.0,1.0,83,0.00,,,0.01,WeatherCatV1.23B16,2013-11-29 21:08:00,
2013-11-29 13:23:00,46.5,41.3,30.27,South,170,0.0,0.0,82,0.00,,,0.01,WeatherCatV1.23B16,2013-11-29 21:23:00,
2013-11-29 13:38:00,46.5,41.0,30.26,South,170,0.0,0.0,81,0.00,,,0.01,WeatherCatV1.23B16,2013-11-29 21:38:00,
2013-11-29 13:53:00,48.0,41.5,30.26,South,170,0.0,1.0,78,0.00,,,0.01,WeatherCatV1.23B16,2013-11-29 21:53:00,
2013-11-29 14:08:00,48.5,42.3,30.26,South,169,0.0,0.0,79,0.00,,,0.01,WeatherCatV1.23B16,2013-11-29 22:08:00,
2013-11-29 14:23:00,48.6,42.0,30.26,South,169,0.0,1.0,78,0.00,,,0.01,WeatherCatV1.23B16,2013-11-29 22:23:00,
2013-11-29 14:38:00,48.4,41.9,30.26,South,185,3.0,3.0,78,0.00,,,0.01,WeatherCatV1.23B16,2013-11-29 22:38:00,
2013-11-29 14:53:00,48.2,41.7,30.26,South,185,0.0,0.0,78,0.00,,,0.01,WeatherCatV1.23B16,2013-11-29 22:53:00,
2013-11-29 15:08:00,47.7,41.2,30.27,South,185,0.0,0.0,78,0.00,,,0.01,WeatherCatV1.23B16,2013-11-29 23:08:00,
2013-11-29 15:23:00,47.4,41.5,30.27,South,185,0.0,0.0,80,0.00,,,0.01,WeatherCatV1.23B16,2013-11-29 23:23:00,
2013-11-29 15:38:00,46.9,41.4,30.27,South,184,0.0,0.0,81,0.00,,,0.01,WeatherCatV1.23B16,2013-11-29 23:38:00,
2013-11-29 15:53:00,46.1,40.6,30.27,South,185,0.0,0.0,81,0.00,,,0.01,WeatherCatV1.23B16,2013-11-29 23:53:00,
2013-11-29 16:08:00,45.4,40.5,30.27,South,185,0.0,0.0,83,0.00,,,0.01,WeatherCatV1.23B16,2013-11-30 00:08:00,
2013-11-29 16:23:00,44.6,40.1,30.27,South,185,0.0,0.0,84,0.00,,,0.01,WeatherCatV1.23B16,2013-11-30 00:23:00,
2013-11-29 16:38:00,43.8,39.3,30.27,South,185,0.0,0.0,84,0.00,,,0.01,WeatherCatV1.23B16,2013-11-30 00:38:00,
2013-11-29 16:53:00,42.9,39.0,30.27,South,184,0.0,0.0,86,0.00,,,0.01,WeatherCatV1.23B16,2013-11-30 00:53:00,
2013-11-29 17:08:00,41.9,38.3,30.28,South,185,0.0,0.0,87,0.00,,,0.01,WeatherCatV1.23B16,2013-11-30 01:08:00,
2013-11-29 17:23:00,41.0,37.7,30.29,South,185,0.0,0.0,88,0.00,,,0.01,WeatherCatV1.23B16,2013-11-30 01:23:00,
2013-11-29 17:38:00,40.0,36.7,30.30,South,185,0.0,0.0,88,0.00,,,0.01,WeatherCatV1.23B16,2013-11-30 01:38:00,
2013-11-29 17:53:00,39.1,36.1,30.31,South,184,0.0,0.0,89,0.00,,,0.01,WeatherCatV1.23B16,2013-11-30 01:53:00,
2013-11-29 18:08:00,38.5,35.8,30.31,South,184,0.0,0.0,90,0.00,,,0.01,WeatherCatV1.23B16,2013-11-30 02:08:00,
2013-11-29 18:23:00,37.8,35.1,30.32,South,185,0.0,0.0,90,0.00,,,0.01,WeatherCatV1.23B16,2013-11-30 02:23:00,
2013-11-29 18:38:00,37.5,35.1,30.32,South,185,0.0,0.0,91,0.00,,,0.01,WeatherCatV1.23B16,2013-11-30 02:38:00,
2013-11-29 18:53:00,37.0,34.6,30.32,South,184,0.0,0.0,91,0.00,,,0.01,WeatherCatV1.23B16,2013-11-30 02:53:00,
2013-11-29 19:08:00,36.5,34.1,30.32,South,185,0.0,0.0,91,0.00,,,0.01,WeatherCatV1.23B16,2013-11-30 03:08:00,
2013-11-29 19:23:00,36.1,33.7,30.32,South,185,0.0,0.0,91,0.00,,,0.01,WeatherCatV1.23B16,2013-11-30 03:23:00,
2013-11-29 19:38:00,35.5,33.1,30.32,South,184,0.0,0.0,91,0.00,,,0.01,WeatherCatV1.23B16,2013-11-30 03:38:00,
2013-11-29 19:53:00,35.2,33.1,30.33,South,185,0.0,0.0,92,0.00,,,0.01,WeatherCatV1.23B16,2013-11-30 03:53:00,
2013-11-29 20:08:00,35.0,32.9,30.33,South,184,0.0,0.0,92,0.00,,,0.01,WeatherCatV1.23B16,2013-11-30 04:08:00,
2013-11-29 20:23:00,34.9,32.8,30.33,South,184,0.0,0.0,92,0.00,,,0.01,WeatherCatV1.23B16,2013-11-30 04:23:00,
2013-11-29 20:38:00,34.6,32.5,30.34,South,185,0.0,0.0,92,0.00,,,0.01,WeatherCatV1.23B16,2013-11-30 04:38:00,
2013-11-29 20:53:00,34.4,32.3,30.35,South,185,0.0,0.0,92,0.00,,,0.01,WeatherCatV1.23B16,2013-11-30 04:53:00,
2013-11-29 21:08:00,34.0,31.9,30.35,South,185,0.0,0.0,92,0.00,,,0.01,WeatherCatV1.23B16,2013-11-30 05:08:00,
2013-11-29 21:23:00,33.9,31.8,30.35,South,184,0.0,0.0,92,0.00,,,0.01,WeatherCatV1.23B16,2013-11-30 05:23:00,
2013-11-29 21:38:00,33.9,32.1,30.36,South,184,0.0,0.0,93,0.00,,,0.01,WeatherCatV1.23B16,2013-11-30 05:38:00,
2013-11-29 21:53:00,34.1,32.3,30.36,South,185,0.0,0.0,93,0.00,,,0.01,WeatherCatV1.23B16,2013-11-30 05:53:00,
2013-11-29 22:08:00,34.4,32.6,30.36,South,185,0.0,0.0,93,0.00,,,0.01,WeatherCatV1.23B16,2013-11-30 06:08:00,
2013-11-29 22:23:00,35.0,33.2,30.37,South,185,0.0,0.0,93,0.00,,,0.01,WeatherCatV1.23B16,2013-11-30 06:23:00,
2013-11-29 22:38:00,35.2,33.4,30.36,South,184,0.0,0.0,93,0.00,,,0.01,WeatherCatV1.23B16,2013-11-30 06:38:00,
2013-11-29 22:53:00,35.5,33.7,30.37,South,184,0.0,0.0,93,0.00,,,0.01,WeatherCatV1.23B16,2013-11-30 06:53:00,
2013-11-29 23:08:00,35.8,34.0,30.37,South,184,0.0,0.0,93,0.00,,,0.01,WeatherCatV1.23B16,2013-11-30 07:08:00,
2013-11-29 23:23:00,36.0,34.2,30.37,South,185,0.0,0.0,93,0.00,,,0.01,WeatherCatV1.23B16,2013-11-30 07:23:00,
2013-11-29 23:38:00,35.9,34.1,30.37,South,185,0.0,0.0,93,0.00,,,0.01,WeatherCatV1.23B16,2013-11-30 07:38:00,
2013-11-29 23:53:00,35.8,34.0,30.36,South,184,0.0,0.0,93,0.00,,,0.01,WeatherCatV1.23B16,2013-11-30 07:53:00,